This is the latest recevied weather packets stored in our database for station/object F6DEV-13. If no packets are shown the sender has not sent any weather packets the latest 10 day(s).
| Time | Temp. | Humidity | Pressure | Rain* | Wind** | Luminosity | Snow |
|---|---|---|---|---|---|---|---|
| 1777656796 | 17.78° C | 53% | 1017 hPa | 0 mm | - | - | - |
| 1777656496 | 17.78° C | 53% | 1017 hPa | 0 mm | - | - | - |
| 1777656166 | 17.78° C | 52% | 1017 hPa | 0 mm | - | - | - |
| 1777655836 | 18.33° C | 51% | 1017 hPa | 0 mm | - | - | - |
| 1777655506 | 18.89° C | 50% | 1017 hPa | 0 mm | - | - | - |
| 1777655206 | 18.89° C | 51% | 1018 hPa | 0 mm | - | - | - |
| 1777654906 | 18.89° C | 51% | 1018 hPa | 0 mm | - | - | - |
| 1777654576 | 18.89° C | 51% | 1018 hPa | 0 mm | - | - | - |
| 1777654276 | 18.89° C | 50% | 1018 hPa | 0 mm | - | - | - |
| 1777653946 | 19.44° C | 50% | 1018 hPa | 0 mm | - | - | - |
| 1777653616 | 19.44° C | 48% | 1018 hPa | 0 mm | - | - | - |
| 1777653336 | 20° C | 51% | 1018 hPa | 0 mm | - | - | - |
| 1777653316 | 20° C | 51% | 1018 hPa | 0 mm | - | - | - |
| 1777652986 | 20.56° C | 51% | 1018 hPa | 0 mm | - | - | - |
| 1777652686 | 20.56° C | 54% | 1018 hPa | 0 mm | - | - | - |
| 1777652420 | 20° C | 58% | 1018 hPa | 0 mm | - | - | - |
| 1777652386 | 20° C | 58% | 1018 hPa | 0 mm | - | - | - |
| 1777652110 | -40.56° C | 57% | 1018 hPa | 0 mm | - | - | - |
| 1777652056 | -40.56° C | 57% | 1018 hPa | 0 mm | - | - | - |
| 1777651726 | 20° C | 61% | 1018 hPa | 0 mm | - | - | - |
| 1777651396 | 20° C | 61% | 1018 hPa | 0 mm | - | - | - |
| 1777651066 | 20° C | 60% | 1018 hPa | 0 mm | - | - | - |
| 1777650736 | 20° C | 63% | 1018 hPa | 0 mm | - | - | - |
| 1777650406 | 20° C | 63% | 1018 hPa | 0 mm | - | - | - |
| 1777650076 | 20° C | 66% | 1018 hPa | 0 mm | - | - | - |
* Rain latest hour (hover to see other rain measurements)
** Current wind speed in m/s (hover to see current wind gust speed)